Location: Arrodets-la-Barthe
(43.0306°N, 0.2829°E)
Time: 01:09:27
(UTC+00:00)

Cosmos 2344 - Pass Details

Date: 06 June 2022
Orbit: 1228 x 3015 km, 63.3° (Epoch: 04 July)

Event Time Altitude Azimuth Distance (km) Brightness Sun altitude
Rises 01:33:27 0° 322° (NW) 4,371 6.8 -20.7°
Reaches altitude 10° 01:36:18 10° 330° (NNW) 3,523 6.4 -20.5°
Maximum altitude 01:44:25 41° 40° (NE) 2,319 5.4 -19.9°
Drops below altitude 10° 01:55:13 10° 108° (ESE) 4,682 6.6 -19.0°
Sets 01:59:37 0° 115° (ESE) 5,958 7.1 -18.6°
